LKKVLKLN

Guest
Details From LKKV - Karlovy Vary
To LKLN - Plzen - Line
Flight Number -
Tags generated
Created
Modified
Stats Distance 35 nm / 64 km
Max Altitude 2,800 ft / 853 m
Waypoints 3
Social Downloads 0
Likes 0
Share VATSIM

Download

Looking for another format? Having issues loading an existing format? Contact us
Advertisement - Login to hide

Notes

Basic altitude profile: - Ascent Rate: 2500ft/min - Ascent Speed: 250kts - Cruise Altitude: 35000ft - Cruise Speed: 420kts - Descent Rate: 1500ft/min - Descent Speed: 250kts Options: - Use NATs: yes - Use PACOTS: yes - Use low airways: yes - Use high airways: no

Route

LKKV DONAD LKLN

ID Type Via Altitude Latitude Longitude Leg Dist Tot Dist Heading (true) Name
O LKKV APT - 0 ft / 0 m 50.20349˚ 12.91446˚ - 0 nm - Karlovy Vary
DONAD FIX - 2,800 ft / 853 m 50.08081˚ 13.00000˚ 8 nm 8 nm 156° / 156° -
O LKLN APT - 0 ft / 0 m 49.67523˚ 13.27448˚ 26 nm 34 nm 156° / 157° Plzen - Line

Altitude Profile

Advertisement - Login to hide

LKKV

Details ICAO LKKV (KLV)
Name Karlovy Vary
Region Czech Republic
Timezone Europe/Prague (UTC+2.0)
Stats Elevation 1,988 ft / 606 m (AMSL)
Location 50.203487° 12.914461°
Runways 2
Magnetic Variation 3.579° E

METAR

LKKV 271800Z 36003KT CAVOK 19/13 Q1020 RETS

Decode

TAF

TAF AMD LKKV 271610Z 2716/2818 08006KT CAVOK TEMPO 2716/2718 12014KT 9999 SCT047TCU PROB30 TEMPO 2716/2717 8000 TSRA SCT043CB TEMPO 2810/2818 05014KT 9999 SCT040CB

Decode

Departure Runways

ID Width Length Bearing (true) Bearing (mag) Surface Threshold Offset Overrun Length
11 98 ft / 30 m 7,049 ft / 2,149 m 113.09° 109.51° Asphalt 495 ft / 151 m 0 ft / 0 m
12 98 ft / 30 m 3,351 ft / 1,021 m 113.19° 109.61° Grass 0 ft / 0 m 0 ft / 0 m
29 98 ft / 30 m 7,049 ft / 2,149 m 293.11° 289.53° Asphalt 0 ft / 0 m 0 ft / 0 m
30 98 ft / 30 m 3,351 ft / 1,021 m 293.20° 289.62° Grass 0 ft / 0 m 0 ft / 0 m

LKLN

Details ICAO LKLN
Name Plzen - Line
Region Czech Republic
Timezone Europe/Prague (UTC+2.0)
Stats Elevation 1,187 ft / 362 m (AMSL)
Location 49.675230° 13.274484°
Runways 1
Magnetic Variation 3.644° E

METAR

LKLN 271800Z AUTO 11006KT CAVOK 25/13 Q1019

Decode

TAF

Not found

Destination Runways

ID Width Length Bearing (true) Bearing (mag) Surface Threshold Offset Overrun Length
06 197 ft / 60 m 4,755 ft / 1,449 m 58.19° 54.55° Concrete 0 ft / 0 m 2,477 ft / 755 m
24 197 ft / 60 m 4,755 ft / 1,449 m 238.21° 234.57° Concrete 0 ft / 0 m 784 ft / 239 m

Popular Alternatives